Location: Ahstedt
(52.2048°N, 10.1060°E)
Time: 20:25:02
(UTC+00:00)

Cosmos 2082 Rocket - Pass Details

Date: 19 April 2026
Orbit: 831 x 853 km, 71.0° (Epoch: 13 May)

Event Time Altitude Azimuth Distance (km) Brightness Sun altitude
Exits shadow 01:43:36 36° 228° (SW) 1,334 2.7 -19.4°
Maximum altitude 01:46:00 71° 303° (WNW) 903 2.3 -19.2°
Drops below altitude 10° 01:51:45 10° 28° (NNE) 2,495 5.8 -18.6°
Sets 01:54:14 0° 31° (NNE) 3,434 7.0 -18.4°
